Hourly Data Report for September 22, 2017

All times are specified in Local Standard Time (LST). Add 1 hour to adjust for Daylight Saving Time where and when it is observed.

OTTAWA INTL A
ONTARIO

45°19'00.000" N
75°40'00.000" W
114.90 m
6106001
71628
YOW

Download Data

Hourly Data (September 2017)
Hourly Data Report for September 22, 2017
Temp Definition
°C
Dew Point Temp Definition
°C
Rel Hum Definition
%
Wind Dir Definition
10's deg

Wind Spd Definition
km/h
Visibility Definition
km
Stn Press Definition
kPa
Hmdx Definition


Wind Chill Definition


Weather Definition


TIME
00:00 Legend Double Dagger 15.2 12.0 81 5 11 24.1 100.76     LegendNANA
01:00 Legend Double Dagger 13.9 11.2 83 3 11 24.1 100.76     Mainly Clear
02:00 Legend Double Dagger 14.1 11.6 85 3 11 24.1 100.75     LegendNANA
03:00 Legend Double Dagger 14.4 11.6 83 5 11 24.1 100.74     LegendNANA
04:00 Legend Double Dagger 13.6 10.6 82 6 8 24.1 100.76     Mainly Clear
05:00 Legend Double Dagger 12.8 10.7 87 5 11 24.1 100.78     LegendNANA
06:00 Legend Double Dagger 14.2 11.5 84 1 9 24.1 100.82     LegendNANA
07:00 Legend Double Dagger 16.4 12.6 78 35 7 24.1 100.85     Clear
08:00 Legend Double Dagger 18.6 12.5 67 5 8 24.1 100.85     LegendNANA
09:00 Legend Double Dagger 20.3 12.6 61 6 9 24.1 100.85     LegendNANA
10:00 Legend Double Dagger 22.0 13.0 56 8 8 24.1 100.83 25   Clear
11:00 Legend Double Dagger 23.6 13.0 51 10 6 24.1 100.81 26   LegendNANA
12:00 Legend Double Dagger 25.0 13.5 48 6 5 24.1 100.75 28   LegendNANA
13:00 Legend Double Dagger 25.8 12.3 43 36 3 24.1 100.70 28   Clear
14:00 Legend Double Dagger 26.6 12.1 40 9 9 24.1 100.65 29   LegendNANA
15:00 Legend Double Dagger 26.9 11.7 38 1 7 24.1 100.56 29   LegendNANA
16:00 Legend Double Dagger 26.4 12.1 40 5 6 24.1 100.51 29   Clear
17:00 Legend Double Dagger 24.9 13.9 50 13 8 24.1 100.49 28   LegendNANA
18:00 Legend Double Dagger 22.0 13.2 57 15 8 24.1 100.49 25   LegendNANA
19:00 Legend Double Dagger 20.3 13.5 65 17 9 24.1 100.47     Mainly Clear
20:00 Legend Double Dagger 18.9 13.2 69 36 3 24.1 100.53     LegendNANA
21:00 Legend Double Dagger 17.6 12.9 74 15 7 24.1 100.49     LegendNANA
22:00 Legend Double Dagger 18.0 12.7 71 15 11 24.1 100.49     Clear
23:00 Legend Double Dagger 17.7 12.9 73 19 7 24.1 100.49     LegendNANA

Notes on Data Quality.

Legend

  • E = Estimated
  • M = Missing
  • NA = Not Available
  • ‡ = Partner data that is not subject to review by the National Climate Archives
Date modified: